Regional Weather Roundup
Issued by NWS

Home | Current Version | Previous Version | Text Only | Print | Product List | Glossary On
Versions: 1 2 3 4 5 6 7 8 9 10 11 12 13 14 15 16 17 18 19 20 21 22 23 24 25 26 27 28 29 30 31 32 33 34 35 36 37 38 39 40 41 42 43 44 45 46 47 48 49 50
000
ASUS44 KJAN 290410
RWRMS

MISSISSIPPI HOURLY WEATHER ROUNDUP
NATIONAL WEATHER SERVICE JACKSON MS
1000 PM CST WED JAN 28 2015

NOTE: "FAIR: INDICATES FEW OR NO CLOUDS BELOW 12,000 FEET WITH NO
SIGNIFICANT WEATHER AND/OR OBSTRUCTIONS TO VISIBILITY.

MSZ001>002-007>008-010>013-018>021-025>028-034>036-290500-
NORTHWEST MISSISSIPPI

CITY           SKY/WX    TMP DP  RH WIND       PRES   REMARKS
CLARKSDALE     FAIR      52  39  62 SE12      30.11F
CLEVELAND      FAIR      53  42  64 S12       30.12S
GREENWOOD      PTCLDY    51  37  58 S8        30.15R
GREENVILLE     CLOUDY    55  38  52 S10       30.12S
GRENADA        FAIR      41  36  81 CALM      30.16S
OLIVE BRANCH   CLEAR     48  32  53 S9        30.11F
OXFORD         FAIR      48  30  49 S9        30.16R
TUNICA         MOCLDY    45  37  76 SE10      30.10F
$$

MSZ003>006-009-014>017-022>024-029>033-037>039-290500-
NORTHEAST MISSISSIPPI

CITY           SKY/WX    TMP DP  RH WIND       PRES   REMARKS
COLUMBUS AFB   MOCLDY    42  31  66 SE7       30.18R
CORINTH        FAIR      45  32  61 SE7       30.14R
GOLDN TRIANGLE MOCLDY    48  30  49 S9        30.17S
STARKVILLE     FAIR      46  32  57 S5        30.17S
TUPELO         PTCLDY    45  32  60 SW7       30.16R
$$

MSZ040-058-290500-
CENTRAL MISSISSIPPI

CITY           SKY/WX    TMP DP  RH WIND       PRES   REMARKS
JACKSON INTL   MOCLDY    50  36  58 S6        30.17S
JACKSON HAWKNS NOT AVBL
MERIDIAN KEY   PTCLDY    41  34  76 CALM      30.20S
MERIDIAN NAS   MOCLDY    48  29  47 SE3       30.20F
RAYMOND        FAIR      54  50  87 MISG      30.18R
VICKSBURG      MOCLDY    55  41  59 S7        30.17R
$$

MSZ059>079-290500-
SOUTH MISSISSIPPI

CITY           SKY/WX    TMP DP  RH WIND       PRES   REMARKS
BROOKHAVEN     FAIR      54  39  58 S7        30.20R
HATTIESBURG    PTCLDY    48  40  73 SE3       30.22F
MCCOMB         PTCLDY    50  40  68 S7        30.20S
NATCHEZ        MOCLDY    57  36  44 S13       30.18F
PINE BELT      PTCLDY    48  36  61 S6        30.21S
$$

MSZ080>082-290500-
COASTAL MISSISSIPPI

CITY           SKY/WX    TMP DP  RH WIND       PRES   REMARKS
BILOXI         CLEAR     49  47  93 CALM      30.23F
PASCAGOULA     PTCLDY    42  40  92 CALM      30.23F
GULFPORT       CLEAR     45  42  89 CALM      30.22F
$$


USA.gov is the U.S. government's official web portal to all federal, state and local government web resources and services.